Location: Czu?�w
(50.1404°N, 18.9919°E)
Time: 13:46:41
(UTC+00:00)

USA 215 - Pass Details

Date: 27 October 2020
Orbit: 1102 x 1106 km, 123.0° (Epoch: 23 November)

Event Time Altitude Azimuth Distance (km) Brightness Sun altitude
Exits shadow 16:04:15 - 74° (ENE) 3,208 5.0 -6.3°
Reaches altitude 10° 16:04:55 10° 72° (ENE) 2,964 4.8 -6.4°
Maximum altitude 16:11:08 49° 0° (N) 1,394 3.8 -7.4°
Drops below altitude 10° 16:17:22 10° 288° (WNW) 2,965 6.6 -8.4°
Sets 16:19:56 0° 284° (WNW) 3,924 7.6 -8.8°
